[[{"header":{"parameterUnit":"m.s-1","parameterCategory":1,"la1":30.2991,"la2":30.254,"lo1":-89.0895,"lo2":-89.0444,"dy":0.0017,"dx":0.0017,"nx":28,"ny":28,"refTime":"2024-07-08T21:00:00:Z","depth":0,"parameterNumber":2,"parameterNumberName":"U-component_of_WINDS"},"data":[0,0,0,0,0,0,0,0,0,0,0,0,0,0,0,0,0,0,0,0,0,0,0,0,0,0,0,0,0,0,0,0,0,0,0,0,0,0,0,0,0,0,0,0,0,0,0,0,0,0,0,0,0,0,0,0,0,0,5.1862,5.1864,0,5.2051,5.2053,5.2055,5.1999,5.1995,5.1991,5.1988,5.2183,5.2192,5.2201,0,0,0,0,0,0,0,0,0,0,0,0,0,5.1449,5.1457,5.1861,5.1864,5.1866,5.2051,5.2053,5.2056,5.2,5.1995,5.199,5.1986,5.218,5.2191,5.2201,0,0,0,0,0,0,0,0,0,0,0,0,0,5.1633,5.146,5.1861,5.186,5.1862,5.205,5.2054,5.2057,5.2001,5.1995,5.1989,5.1983,5.2177,5.219,5.2203,5.2404,0,0,5.2244,5.2249,0,0,0,0,0,0,0,0,5.1622,5.1648,5.1858,5.1861,5.1863,5.1995,5.198,5.2173,5.2002,5.1948,5.1987,5.1981,5.2126,5.2143,5.2191,5.2413,5.2421,5.2245,5.2253,5.2259,5.2262,0,0,0,0,0,0,0,5.161,5.1639,5.1936,5.1861,5.1864,5.185,5.187,5.2016,5.2068,5.1953,5.1949,5.1972,5.2126,5.2179,5.2196,5.2424,5.2244,5.2256,5.2265,5.227,5.2815,5.2821,0,0,0,0,0,0,5.1595,5.1629,5.193,5.1942,5.1726,5.1862,5.1884,5.1959,5.2066,5.2077,5.1977,5.1969,5.2159,5.218,5.2202,5.2441,5.2259,5.2271,5.2279,5.2809,5.2817,5.2824,0,0,0,0,0,0,5.1587,5.1623,5.1923,5.1785,5.1822,5.1876,5.196,5.1966,5.2018,5.2085,5.2093,5.2021,5.2155,5.2183,5.2353,5.2447,5.2277,5.2289,5.2801,5.2811,5.282,5.2922,0,0,0,0,0,0,5.1575,5.162,5.1697,5.1787,5.1829,5.2071,5.1966,5.1974,5.2041,5.2033,5.2129,5.2139,5.2153,5.2333,5.2366,5.2462,5.23,5.2793,5.2806,5.2817,5.2911,5.2934,5.2955,0,0,0,0,0,5.1561,5.172,5.1702,5.1738,5.1927,5.2077,5.2101,5.2113,5.2049,5.2127,5.2169,5.2136,5.2432,5.2351,5.2388,5.2489,5.2787,5.2802,5.2816,5.2901,5.293,5.2954,0,0,0,0,0,0,5.1641,5.1732,5.1712,5.1906,5.1984,5.2067,5.2165,5.2144,5.2242,5.223,5.2241,5.2263,5.2436,5.248,5.2388,5.2687,5.26,5.2623,5.2652,5.268,5.2701,5.2686,5.2311,0,0,0,0,0,5.1681,5.1795,5.1868,5.2031,5.2071,5.2112,5.2177,5.2179,5.2261,5.2294,5.2348,5.2429,5.2539,5.2612,5.2718,5.2917,5.2936,5.3005,5.3027,5.3044,5.3063,5.3168,5.3199,5.2872,5.2872,5.2871,0,0,5.1766,5.1829,5.1901,5.2049,5.211,5.2226,5.214,5.2268,5.2354,5.2314,5.2476,5.2519,5.2609,5.2793,5.2877,5.2835,5.3158,5.3063,5.3077,5.3086,5.3186,5.3217,5.3245,5.2882,5.288,5.2878,0,0,5.1978,5.2039,5.218,5.2242,5.2334,5.2359,5.2393,5.2479,5.2505,5.2668,5.2639,5.2742,5.2933,5.2998,5.3056,5.3289,5.3261,5.3323,5.3437,5.3539,5.3565,5.3588,5.3668,5.3697,5.3342,5.3343,5.3343,0,5.2072,5.2246,5.2255,5.2385,5.2449,5.2417,5.2558,5.2618,5.2741,5.2786,5.2737,5.2974,5.3033,5.323,5.3286,5.3335,5.3372,5.3312,5.356,5.3583,5.3605,5.3681,5.3712,5.3349,5.3349,5.3348,5.3347,0,5.2355,5.2476,5.2579,5.2696,5.2772,5.2908,5.2936,5.3012,5.3007,5.3037,5.3201,5.327,5.3388,5.3435,5.3433,5.3631,5.3601,5.3557,5.3469,5.3643,5.3714,5.3744,5.3359,5.3356,5.3354,5.3353,0,0,5.2625,5.2743,5.278,5.2831,5.2929,5.3023,5.3155,5.3269,5.3333,5.3418,5.3528,5.3689,5.3647,5.3713,5.3717,5.3807,5.3982,5.375,5.3752,5.3789,5.4201,5.4232,5.4266,5.3965,5.3971,5.3975,5.4193,0,5.2844,5.3076,5.3086,5.3297,5.3407,5.3376,5.3491,5.3563,5.3594,5.3692,5.3726,5.3839,5.3777,5.3815,5.3903,5.3943,5.4065,5.3927,5.4066,5.407,5.4041,5.4305,5.4339,5.454,5.4221,5.4226,5.4229,0,5.313,5.3222,5.3443,5.3522,5.3569,5.3672,5.3774,5.3869,5.3949,5.3965,5.4036,5.4027,5.416,5.4069,5.4252,5.4158,5.4215,5.4243,5.4251,5.4263,5.4159,5.4321,5.4606,5.4635,5.4275,5.4271,5.4268,0,5.3301,5.348,5.3635,5.368,5.3777,5.3849,5.3893,5.3967,5.4033,5.4123,5.4166,5.4271,5.4328,5.4409,5.4427,5.436,5.4609,5.452,5.4625,5.4624,5.4678,5.4674,5.4973,5.4719,5.4718,5.4718,5.4717,0,5.3543,5.3679,5.3712,5.3807,5.3957,5.3967,5.4116,5.4155,5.422,5.4321,5.4302,5.4396,5.4415,5.4514,5.4529,5.4677,5.4704,5.4719,5.4721,5.4719,5.4717,5.4756,5.4741,5.4726,5.4724,5.4722,5.4721,0,5.3759,5.3787,5.3953,5.403,5.4052,5.4159,5.4224,5.4315,5.4342,5.447,5.45,5.4544,5.4658,5.4684,5.4822,5.4831,5.5005,5.4995,5.4978,5.4976,5.5078,5.5067,5.541,5.5454,5.5174,5.5177,5.5179,0,5.3911,5.4014,5.4101,5.4166,5.4213,5.4319,5.4386,5.4399,5.4469,5.4566,5.4644,5.4756,5.4846,5.5031,5.5074,5.5178,5.5168,5.5281,5.5184,5.5178,5.5166,5.5159,5.5168,5.53,5.5303,5.5305,5.5307,0,5.4176,5.4183,5.428,5.4381,5.4461,5.4541,5.4618,5.4673,5.4696,5.4776,5.4891,5.4961,5.5099,5.521,5.5313,5.5357,5.5336,5.5337,5.5366,5.5365,5.5349,5.5356,5.5026,5.5329,5.5327,5.5325,5.5324,5.5323,5.4363,5.4451,5.4525,5.4632,5.4691,5.4762,5.4849,5.4886,5.4983,5.5095,5.5098,5.5223,5.5297,5.5434,5.5484,5.5582,5.5546,5.559,5.56,5.561,5.5617,5.5335,5.5601,5.56,5.56,5.5599,5.5599,0,5.4624,5.4669,5.4767,5.4874,5.4957,5.4929,5.5011,5.5083,5.5193,5.5264,5.5352,5.5484,5.559,5.5641,5.5746,5.5814,5.5806,5.5841,5.5835,5.5844,5.5644,5.5607,5.5845,5.5845,5.5845,5.5844,5.5844,5.5844,5.4769,5.4917,5.4933,5.5108,5.5152,5.5274,5.5323,5.5388,5.5443,5.5591,5.5678,5.571,5.5772,5.5881,5.5976,5.5988,5.6026,5.6065,5.6072,5.5884,5.5859,5.5835,5.58,5.6074,5.6074,5.6263,5.6265,5.6267]},{"header":{"parameterUnit":"m.s-1","parameterCategory":1,"la1":30.2991,"la2":30.254,"lo1":-89.0895,"lo2":-89.0444,"dy":0.0017,"dx":0.0017,"nx":28,"ny":28,"refTime":"2024-07-08T21:00:00:Z","depth":0,"parameterNumber":3,"parameterNumberName":"V-component_of_WINDS"},"data":[0,0,0,0,0,0,0,0,0,0,0,0,0,0,0,0,0,0,0,0,0,0,0,0,0,0,0,0,0,0,0,0,0,0,0,0,0,0,0,0,0,0,0,0,0,0,0,0,0,0,0,0,0,0,0,0,0,0,1.1299,1.13,0,1.1337,1.1337,1.1338,1.1311,1.131,1.1309,1.1308,1.1348,1.135,1.1352,0,0,0,0,0,0,0,0,0,0,0,0,0,1.1206,1.1208,1.1299,1.13,1.13,1.1337,1.1337,1.1338,1.1311,1.131,1.1308,1.1307,1.1347,1.135,1.1352,0,0,0,0,0,0,0,0,0,0,0,0,0,1.1245,1.1208,1.1299,1.1291,1.1291,1.1337,1.1337,1.1338,1.1312,1.131,1.1308,1.1306,1.1346,1.1349,1.1353,1.1409,0,0,1.1363,1.1364,0,0,0,0,0,0,0,0,1.1243,1.1249,1.1292,1.1292,1.1292,1.1317,1.1319,1.1362,1.1312,1.1304,1.1308,1.1306,1.1339,1.1343,1.1354,1.141,1.1412,1.1363,1.1365,1.1366,1.1367,0,0,0,0,0,0,0,1.124,1.1247,1.1314,1.1293,1.1293,1.1286,1.129,1.1327,1.1331,1.1304,1.1303,1.1307,1.1339,1.1351,1.1355,1.1413,1.1363,1.1366,1.1368,1.1369,1.1517,1.1519,0,0,0,0,0,0,1.1238,1.1245,1.1313,1.1315,1.1262,1.1289,1.1294,1.1311,1.1331,1.1332,1.1309,1.1306,1.1346,1.1351,1.1356,1.1423,1.1366,1.1369,1.1371,1.1515,1.1517,1.1519,0,0,0,0,0,0,1.1236,1.1244,1.1311,1.128,1.1288,1.1293,1.1313,1.1313,1.1325,1.1334,1.1335,1.132,1.1345,1.1351,1.1396,1.1424,1.1371,1.1374,1.1512,1.1516,1.1518,1.1557,0,0,0,0,0,0,1.1234,1.1244,1.1265,1.128,1.1289,1.135,1.1315,1.1315,1.133,1.1327,1.1345,1.1346,1.1344,1.1391,1.1399,1.1428,1.1376,1.151,1.1514,1.1517,1.1554,1.1561,1.1568,0,0,0,0,0,1.123,1.1275,1.1266,1.1275,1.1316,1.1352,1.1357,1.1353,1.1333,1.1354,1.136,1.1346,1.1419,1.1396,1.1404,1.1435,1.1508,1.1513,1.1517,1.155,1.156,1.1568,0,0,0,0,0,0,1.1264,1.1277,1.1267,1.1318,1.1334,1.1347,1.1374,1.1363,1.1386,1.1382,1.1376,1.1381,1.1427,1.1435,1.1408,1.149,1.1461,1.1467,1.1483,1.1492,1.1499,1.1497,1.1379,0,0,0,0,0,1.1277,1.1305,1.1315,1.1359,1.1367,1.1369,1.1385,1.138,1.1397,1.1404,1.1413,1.143,1.1456,1.1474,1.15,1.1554,1.1558,1.1579,1.1586,1.1592,1.1598,1.1628,1.1637,1.1534,1.1534,1.1534,0,0,1.1305,1.1315,1.1333,1.1366,1.1377,1.1407,1.1375,1.1408,1.1429,1.1409,1.1451,1.1458,1.1476,1.1526,1.1548,1.1534,1.1627,1.1598,1.1602,1.1605,1.1633,1.1643,1.1652,1.1537,1.1536,1.1536,0,0,1.1371,1.1381,1.1419,1.1431,1.1449,1.145,1.1459,1.1474,1.1478,1.152,1.1505,1.153,1.1577,1.1591,1.1604,1.1674,1.1662,1.1682,1.172,1.1749,1.1757,1.1764,1.1789,1.1799,1.1688,1.1688,1.1688,0,1.1403,1.1446,1.144,1.1473,1.1488,1.1469,1.1508,1.152,1.1546,1.1556,1.154,1.1597,1.1608,1.1661,1.1678,1.1689,1.1699,1.168,1.1756,1.1763,1.177,1.1794,1.1804,1.169,1.169,1.169,1.1689,0,1.1486,1.1516,1.1544,1.1568,1.1586,1.1622,1.1621,1.164,1.1633,1.1636,1.1679,1.1692,1.1719,1.1731,1.1725,1.1783,1.1773,1.1756,1.1727,1.1782,1.1805,1.1814,1.1694,1.1693,1.1692,1.1691,0,0,1.1575,1.1594,1.1605,1.1616,1.1634,1.1657,1.1692,1.1718,1.1734,1.1752,1.1782,1.1821,1.1805,1.182,1.1815,1.184,1.1895,1.182,1.1821,1.1835,1.196,1.1973,1.1984,1.1887,1.1889,1.189,1.1959,0,1.1642,1.1702,1.1697,1.1754,1.1782,1.1764,1.1795,1.1809,1.1813,1.1837,1.1841,1.1869,1.1845,1.1854,1.1878,1.1884,1.1921,1.1878,1.1915,1.1916,1.1912,1.1996,1.201,1.2075,1.1967,1.1969,1.197,0,1.1729,1.1749,1.1809,1.1822,1.1834,1.1861,1.1885,1.1908,1.1924,1.1924,1.194,1.1931,1.1967,1.1936,1.1984,1.1956,1.197,1.1975,1.1977,1.1982,1.1947,1.2003,1.2095,1.2105,1.1984,1.1983,1.1982,0,1.1789,1.1831,1.1872,1.1882,1.1898,1.1918,1.1926,1.194,1.1956,1.1976,1.1987,1.2011,1.2025,1.2044,1.2042,1.2019,1.2091,1.206,1.2094,1.2094,1.2111,1.211,1.2207,1.2118,1.2118,1.2118,1.2118,0,1.1865,1.1903,1.1899,1.1925,1.1966,1.196,1.2001,1.2007,1.2019,1.2046,1.2032,1.2057,1.2052,1.2077,1.2076,1.2117,1.2123,1.2125,1.2124,1.2127,1.2126,1.2137,1.2133,1.212,1.212,1.2119,1.2119,0,1.194,1.1939,1.1983,1.1994,1.1998,1.2028,1.2038,1.2063,1.2064,1.2098,1.2105,1.2108,1.2137,1.2137,1.217,1.2169,1.2219,1.2213,1.2214,1.2213,1.2246,1.2243,1.2354,1.2369,1.227,1.2271,1.2272,0,1.1989,1.2017,1.2032,1.2048,1.2057,1.2084,1.21,1.2094,1.2111,1.2131,1.2153,1.218,1.2202,1.2249,1.2255,1.228,1.2274,1.2311,1.2278,1.228,1.2276,1.2275,1.2278,1.2318,1.232,1.232,1.2321,0,1.2076,1.2074,1.2098,1.2121,1.214,1.2158,1.2175,1.2189,1.2185,1.2205,1.2234,1.2251,1.2285,1.2312,1.2336,1.2344,1.2333,1.2331,1.2341,1.2344,1.2344,1.2345,1.2232,1.2329,1.2328,1.2328,1.2327,1.2327,1.214,1.2165,1.2178,1.2205,1.2216,1.2232,1.2255,1.226,1.2284,1.231,1.2305,1.2338,1.2353,1.2383,1.2394,1.2419,1.2407,1.242,1.2423,1.2427,1.2431,1.2339,1.2424,1.2423,1.2423,1.2423,1.2423,0,1.2228,1.2235,1.226,1.2283,1.2304,1.2289,1.2307,1.2326,1.2354,1.2369,1.239,1.2424,1.245,1.2457,1.2483,1.2502,1.2497,1.2509,1.2508,1.251,1.2441,1.2431,1.2512,1.2512,1.2512,1.2512,1.2512,1.2512,1.2276,1.2316,1.2316,1.2362,1.2369,1.2401,1.2412,1.2427,1.2438,1.2476,1.2498,1.2502,1.2513,1.2539,1.2563,1.2564,1.2575,1.2589,1.2589,1.2524,1.2515,1.2506,1.2497,1.2591,1.2591,1.2656,1.2657,1.2657]}]]